Regional Weather Roundup
Issued by NWS

Home | Current Version | Previous Version | Graphics & Text | Print | Product List | Glossary On
Versions: 1 2 3 4 5 6 7 8 9 10 11 12 13 14 15 16 17 18 19 20 21 22 23 24 25 26 27 28 29 30 31 32 33 34 35 36 37 38 39 40 41 42 43 44 45 46 47 48 49 50
000
ASUS45 KTFX 221819
RWRMT
MONTANA HOURLY WEATHER ROUNDUP
NATIONAL WEATHER SERVICE GREAT FALLS MT
1219 PM MDT FRI AUG 22 2014

NOTE: "FAIR" INDICATES FEW OR NO CLOUDS BELOW 12000 FEET WITH NO
SIGNIFICANT WEATHER AND/OR OBSTRUCTIONS TO VISIBILITY.

* THESE STATIONS ARE NOT UNDER NWS QUALITY CONTROL. THEY DO NOT
   REPORT WEATHER SUCH AS PRECIPITATION OR FOG.

MTZ001>007-043-221900-
WEST OF THE DIVIDE
CITY           SKY/WX    TMP DP  RH WIND       PRES   REMARKS
KALISPELL      CLOUDY    55  50  83 W9        30.10R
MISSOULA       LGT RAIN  57  55  93 NW6       30.08S
BUTTE          CLOUDY    55  45  69 NE3       30.12S
MULLAN PASS    CLOUDY    50  45  83 CALM      30.11S
* ESSEX        N/A       54  47  77 NE3        N/A
* LINCOLN      N/A       56  46  69 NE12G22    N/A
* LOOKOUT PASS N/A       56  47  72 S5G12      N/A
* POLSON       N/A       58  49  72 N2G7       N/A
* RONAN APT    CLOUDY    63  54  73 N/A        N/A
* SEELEY LAKE  N/A       53  51  93 N/A        N/A
* THOMP F APT  CLOUDY    51  46  83 SE5G11     N/A
$$

MTZ008-052>055-221900-
SOUTHWEST MONTANA
CITY           SKY/WX    TMP DP  RH WIND       PRES   REMARKS
BOZEMAN        CLOUDY    57  52  83 NW5       30.08F
DILLON         CLOUDY    55  48  77 NE7       30.09S
W YELLOWSTONE  CLOUDY    48  46  93 SE3       30.16S
* THREE FORKS  CLOUDY    59  39  48 N/A        N/A
* BOULDER HILL N/A       49  46  89 N8         N/A
* MONIDA PASS  N/A       50  46  86 SE11       N/A
* RAYNOLDS PAS N/A       51  32  48 SE12       N/A
* WHITEHALL    N/A       58  51  78 NE2        N/A
* WISE RIVER   N/A       54  46  74 SE9        N/A
$$

MTZ009>010-012-014-046-048-049-054-221900-
EAST SLOPES AND CENTRAL MONTANA
CITY           SKY/WX    TMP DP  RH WIND       PRES   REMARKS
CUT BANK       CLOUDY    52  48  86 NE16      30.18S
GREAT FALLS    LGT RAIN  54  52  93 N7        30.13S VSB 3
HELENA         CLOUDY    61  50  67 NW5       30.10S
MALMSTROM AFB  CLOUDY    54  54 100 NE9       30.14F
* CONRAD       CLOUDY    54  54 100 NW5        N/A
* DEARBORN     N/A       55  51  86 VRB8G13    N/A
* EAST GLACIER N/A       48  47  96 E10G15     N/A
* MONARCH      N/A       49  46  89 NW6        N/A
* PENDROY      N/A       50  50 100 NE9        N/A
* ROGERS PASS  N/A       47  47 100 SW4G9      N/A
* SAINT MARY   N/A       49  48  96 N3         N/A
* SWEET GRASS  N/A       49  49 100 NE19G26    N/A
* WHITE SULPH  N/A       59  50  72 W4G9       N/A
$$

MTZ011-013-016-021-035-040-045-047-050-051-221900-
NORTH CENTRAL MONTANA
CITY           SKY/WX    TMP DP  RH WIND       PRES   REMARKS
HAVRE          CLOUDY    63  54  73 E15       30.11S
LEWISTOWN      CLOUDY    61  54  78 E9        30.11F
* CHINOOK      CLOUDY    63  55  75 E10       30.11S
* FORT BENTON  CLOUDY    55  54  96 SW5       30.15R VSB 1/2
* CHESTER      N/A       54  52  93 NE8G13     N/A
* DENTON       N/A       54  52  93 NW9        N/A
* GEYSER       N/A       53  52  96 E2         N/A
* JUDITH GAP   N/A       53  52  96 N9         N/A
* LOMA         N/A       58  55  90 NW6        N/A
$$

MTZ017>020-022>027-061-062-221900-
NORTHEAST MONTANA
CITY           SKY/WX    TMP DP  RH WIND       PRES   REMARKS
GLASGOW        CLOUDY    61  57  87 E15       30.11S
GLENDIVE       CLOUDY    64  61  90 NE14G20   30.10R
JORDAN         CLOUDY    66  55  68 E9        30.08S
SIDNEY         PTSUNNY   66  57  73 NE12      30.10S
WOLF POINT     LGT RAIN  63  57  81 NE13      30.11F
* BEAVER HILL  N/A       66  59  78 N/A        N/A
* CIRCLE       N/A       59  58  97 NE11       N/A
* LINDSAY DVD  N/A       61  58  90 NE9        N/A
* SACO         N/A       59  58  97 NE9        N/A
$$

MTZ028>042-056>058-221900-
SOUTHCENTRAL AND SOUTHEAST MONTANA
CITY           SKY/WX    TMP DP  RH WIND       PRES   REMARKS
BAKER          CLOUDY    72  61  68 E10       30.08F
BILLINGS       LGT RAIN  57  55  93 NE8       30.09F VSB 2
LIVINGSTON     CLOUDY    61  48  62 E6        30.08F
MILES CITY     CLOUDY    68  55  63 NE5       30.06F
* LAUREL APT   PTSUNNY   61  55  81 N6         N/A
* ROUNDUP APT  CLOUDY    59  54  84 NE6        N/A
* ALZADA       N/A       67  58  73 NE4        N/A
* HYSHAM       N/A       64  52  65 NE7        N/A
* LAME DEER    N/A       58  56  93 E4         N/A
* REED POINT   N/A       62  52  70 NE5        N/A
* ROSCOE HILL  N/A       56  47  72 NE6        N/A
$$

REGIONAL REPORTS...DAKOTAS
CITY           SKY/WX    TMP DP  RH WIND       PRES   REMARKS
WILLISTON      CLOUDY    68  54  61 NE10      30.10S
DICKINSON      LGT RAIN  64  61  90 NE12      30.06S
BEACH          N/A       64  64 100 E12       30.10R
CROSBY         CLOUDY    64  57  78 NE10      30.13F
TIOGA          CLOUDY    64  61  90 E13       30.14S
WATFORD CITY   CLOUDY    63  57  81 NE13      30.08S
BISMARCK       CLOUDY    75  64  69 E3        30.05R
GRAND FORKS    CLOUDY    68  64  87 NW13      30.02R
FARGO          CLOUDY    72  66  81 N10       30.00R
BUFFALO SD     PTSUNNY   70  57  64 NE3       30.02S
RAPID CITY     PTCLDY    72  61  68 E6        30.06F
$$

REGIONAL REPORTS...WYOMING/IDAHO/WASHINGTON
CITY           SKY/WX    TMP DP  RH WIND       PRES   REMARKS
GILLETTE       CLOUDY    72  54  53 VRB5      30.08F
SHERIDAN       CLOUDY    64  55  73 CALM      30.06F
CODY           CLOUDY    59  52  78 SE7       30.11S
YELLOWSTONE LA CLOUDY    48  43  83 VRB5      30.23S
SALMON         CLOUDY    63  52  68 SW15      29.99F
MULLAN PASS    CLOUDY    50  45  83 CALM      30.11S
SAND POINT     CLOUDY    64  52  65 NE18G25   30.04S
SPOKANE        PTSUNNY   63  52  68 E9        30.02R
$$

REGIONAL REPORTS...ALBERTA
CITY           SKY/WX    TMP DP  RH WIND       PRES   REMARKS
CALGARY        LGT RAIN  50  48  93 NE12      30.29R
LETHBRIDGE     LGT RAIN  50  48  93 E14G22    30.24R
MEDICINE HAT   LGT RAIN  52  50  93 NE14G21   30.24R
EDMONTON       PTSUNNY   61  36  39 NE8       30.34S
WATERTON GATE  N/A       48  46  93 NE12       N/A
CARDSTON       N/A       50  48  93 E10G17     N/A
MILK RIVER     N/A       50  48  93 NE16       N/A
$$

REGIONAL REPORTS...SASKATCHEWAN
CITY           SKY/WX    TMP DP  RH WIND       PRES   REMARKS
SWIFT CURRENT  LGT RAIN  54  54 100 NE13      30.21S
MOOSE JAW      CLOUDY    63  54  73 N10       30.20S
REGINA         CLOUDY    64  52  65 NE14      30.18F
VAL MARIE      N/A       61  55  81 E15G21     N/A
ASSINIBOIA     N/A       63  50  63 NE12       N/A
CORONACH       N/A       64  52  65 NE9        N/A

$$




USA.gov is the U.S. government's official web portal to all federal, state and local government web resources and services.